Waarnemingen

Advertentie
Mijn weer
Jerez De La Frontera aeropuert, Spanje (8451): temperatuur & dauwpunt: 12.02.2019 20:00:00 - 18.02.2019 20:00:00 (CET)Jerez De La Frontera aeropuert, Spanje (8451): windsnelheid: 12.02.2019 20:00:00 - 18.02.2019 20:00:00 (CET)Jerez De La Frontera aeropuert, Spanje (8451): windrichting: 12.02.2019 20:00:00 - 18.02.2019 20:00:00 (CET)Jerez De La Frontera aeropuert, Spanje (8451): luchtdruk: 12.02.2019 20:00:00 - 18.02.2019 20:00:00 (CET)Jerez De La Frontera aeropuert, Spanje (8451): zicht: 12.02.2019 20:00:00 - 18.02.2019 20:00:00 (CET)
Datum & Tijd tt [°C] td [°C] ff [km/u] ff [kn] dd ppp [hPa] vv [km]
18.02.2019 20:00:00 15,0 9,0 9 5 ZO - 10
18.02.2019 19:00:00 15,6 8,8 5 3 OZO 1015,6 10
18.02.2019 18:00:00 16,6 8,0 15 8 ZO 1015,2 10
18.02.2019 17:00:00 16,9 8,6 24 13 ZO 1015,2 10
18.02.2019 16:00:00 17,4 9,1 28 15 ZO 1015,1 10
18.02.2019 15:00:00 17,8 8,4 22 12 ZO 1015,2 10
18.02.2019 14:00:00 18,5 9,1 29 16 ZO 1015,4 10
18.02.2019 13:00:00 18,3 9,4 29 16 ZO 1016,0 10
18.02.2019 12:00:00 17,6 9,5 34 18 ZO 1016,1 10
18.02.2019 11:00:00 16,4 10,1 24 13 ZO 1016,3 10
18.02.2019 10:00:00 14,5 9,3 15 8 ZO 1016,4 10
18.02.2019 09:00:00 13,8 9,0 21 11 ZO 1015,8 10
18.02.2019 08:00:00 13,5 9,0 16 9 ZO 1015,6 10
18.02.2019 07:00:00 13,2 8,5 16 9 ZO 1015,7 10
18.02.2019 06:00:00 13,1 8,4 21 11 ZO 1016,0 10
18.02.2019 05:00:00 12,5 8,4 9 5 ZZO 1016,8 10
18.02.2019 04:00:00 12,6 8,5 8 4 ZZO 1017,6 10
18.02.2019 03:00:00 13,0 8,2 21 11 ZO 1017,9 10
18.02.2019 02:00:00 12,9 8,0 21 11 ZO 1018,3 10
18.02.2019 01:00:00 12,3 8,0 5 3 OZO 1018,9 10
18.02.2019 00:00:00 12,3 7,9 11 6 ZZO 1019,3 10
17.02.2019 23:00:00 12,5 8,0 15 8 OZO 1019,7 10
17.02.2019 22:00:00 12,8 8,2 15 8 ZO 1019,6 10
17.02.2019 21:00:00 13,1 8,4 16 9 ZO 1019,8 10
17.02.2019 20:00:00 13,9 8,7 15 8 ZZO 1019,5 10
17.02.2019 19:00:00 15,2 9,2 16 9 Z 1019,3 10
17.02.2019 18:00:00 17,4 8,4 24 13 ZZO 1019,1 10
17.02.2019 17:00:00 18,7 8,9 26 14 ZZO 1019,0 10
17.02.2019 16:00:00 19,7 8,1 24 13 ZZO 1019,3 10
17.02.2019 15:00:00 19,7 8,4 28 15 ZZO 1020,0 10
17.02.2019 14:00:00 20,0 8,7 26 14 ZZO 1020,9 10
17.02.2019 13:00:00 19,5 8,8 26 14 ZO 1021,6 10
17.02.2019 12:00:00 17,3 8,7 2 1 - 1022,5 10
17.02.2019 11:00:00 14,4 8,2 2 1 - 1022,7 10
17.02.2019 10:00:00 9,8 6,9 4 2 - 1022,8 10
17.02.2019 09:00:00 5,4 3,7 5 3 NNW 1022,7 10
17.02.2019 08:00:00 4,1 2,9 2 1 - 1021,9 10
17.02.2019 07:00:00 4,8 3,1 8 4 NNW 1021,9 10
17.02.2019 06:00:00 4,7 3,4 2 1 - 1021,6 10
17.02.2019 05:00:00 4,6 3,2 8 4 N 1021,4 10
17.02.2019 04:00:00 6,6 4,1 4 2 - 1021,7 10
17.02.2019 03:00:00 7,2 5,2 11 6 NW 1021,8 10
17.02.2019 02:00:00 6,9 4,6 8 4 N 1021,8 10
17.02.2019 01:00:00 8,5 5,8 5 3 NW 1022,2 10
17.02.2019 00:00:00 10,3 6,3 4 2 - 1022,5 10
16.02.2019 23:00:00 11,6 6,6 5 3 NNO 1022,5 10
16.02.2019 22:00:00 12,7 6,9 9 5 O 1022,4 10
16.02.2019 21:00:00 13,8 7,1 18 10 O 1022,3 10
16.02.2019 20:00:00 14,1 7,2 11 6 OZO 1022,0 10
16.02.2019 19:00:00 15,4 6,7 22 12 ZO 1021,1 10
16.02.2019 18:00:00 17,2 7,5 24 13 ZO 1020,9 10
16.02.2019 17:00:00 18,5 7,0 28 15 ZO 1020,8 10
16.02.2019 16:00:00 19,0 8,3 26 14 ZO 1020,8 10
16.02.2019 15:00:00 19,4 7,8 24 13 OZO 1021,1 10
16.02.2019 14:00:00 18,2 7,7 26 14 OZO 1022,0 10
16.02.2019 13:00:00 19,3 8,4 21 11 OZO 1022,6 10
16.02.2019 12:00:00 17,2 8,3 8 4 Z 1023,2 10
16.02.2019 11:00:00 16,2 7,5 8 4 - 1022,8 10
16.02.2019 10:00:00 12,6 8,1 2 1 - 1022,4 10
16.02.2019 09:00:00 8,2 6,5 5 3 NW 1022,1 10
16.02.2019 08:00:00 8,7 6,1 9 5 NNW 1021,7 10
16.02.2019 07:00:00 8,7 6,5 5 3 NW 1021,5 10
16.02.2019 06:00:00 9,3 6,9 9 5 N 1021,2 10
16.02.2019 05:00:00 11,1 6,4 5 3 O 1020,9 10
16.02.2019 04:00:00 9,8 6,9 8 4 NNW 1021,1 10
16.02.2019 03:00:00 12,5 6,3 11 6 NO 1021,3 10
16.02.2019 02:00:00 14,2 7,0 22 12 O 1021,4 10
16.02.2019 01:00:00 13,9 7,2 24 13 O 1021,5 10
16.02.2019 00:00:00 11,1 7,0 11 6 O 1022,0 10
15.02.2019 23:00:00 9,1 5,6 5 3 O 1022,3 10
15.02.2019 22:00:00 10,6 6,8 5 3 ZZO 1022,2 10
15.02.2019 21:00:00 11,4 6,9 8 4 ZZW 1021,9 10
15.02.2019 20:00:00 13,3 7,7 5 3 Z 1021,9 10
15.02.2019 19:00:00 15,2 8,4 5 3 Z 1021,6 10
15.02.2019 18:00:00 18,0 8,8 11 6 ZZO 1021,4 10
15.02.2019 17:00:00 19,1 9,2 16 9 ZZO 1021,4 10
15.02.2019 16:00:00 21,2 9,5 11 6 O 1021,7 10
15.02.2019 15:00:00 21,2 9,0 8 4 O 1022,2 10
15.02.2019 14:00:00 20,4 9,2 5 3 - 1023,3 10
15.02.2019 13:00:00 18,7 9,4 4 2 ZW 1024,7 10
15.02.2019 12:00:00 15,0 9,0 5 3 NNW - 10
15.02.2019 11:00:00 13,5 8,4 5 3 NNW 1025,9 10
15.02.2019 10:00:00 9,1 6,5 0 0 N 1026,0 10
15.02.2019 09:00:00 4,4 3,5 0 0 N 1025,7 10
15.02.2019 08:00:00 1,9 0,9 5 3 N 1025,4 10
15.02.2019 07:00:00 3,1 2,0 2 1 - 1025,6 10
15.02.2019 06:00:00 3,8 2,5 0 0 N 1025,3 10
15.02.2019 05:00:00 4,6 3,1 4 2 - 1025,4 10
15.02.2019 04:00:00 5,4 3,6 9 5 NW 1025,8 10
15.02.2019 03:00:00 6,2 3,5 5 3 O 1025,9 10
15.02.2019 02:00:00 6,0 4,1 5 3 NNO 1026,4 10
15.02.2019 01:00:00 7,2 4,0 5 3 O 1026,6 10
15.02.2019 00:00:00 8,8 4,8 9 5 ONO 1026,5 10
14.02.2019 23:00:00 10,9 5,9 9 5 O 1026,8 10
14.02.2019 22:00:00 10,8 6,0 8 4 O 1026,9 10
14.02.2019 21:00:00 12,0 6,1 9 5 ZO 1026,5 10
14.02.2019 20:00:00 12,9 6,0 11 6 OZO 1026,1 10
14.02.2019 19:00:00 15,0 6,5 21 11 ZO 1025,8 10
14.02.2019 18:00:00 17,4 7,1 22 12 ZO 1025,9 10
14.02.2019 17:00:00 18,9 7,9 28 15 ZO 1025,8 10
14.02.2019 16:00:00 19,2 7,9 29 16 ZO 1026,1 10
14.02.2019 15:00:00 19,3 8,4 29 16 ZO 1026,7 10
14.02.2019 14:00:00 19,6 9,1 28 15 ZO 1027,0 10
14.02.2019 13:00:00 19,6 8,3 26 14 ZO 1027,9 10
14.02.2019 12:00:00 18,3 8,4 29 16 ZO 1028,3 10
14.02.2019 11:00:00 16,7 9,3 9 5 OZO 1028,1 10
14.02.2019 10:00:00 11,3 8,0 4 2 - 1028,1 10
14.02.2019 09:00:00 5,3 4,3 2 1 - 1027,7 10
14.02.2019 08:00:00 4,3 3,3 2 1 NNO 1027,3 10
14.02.2019 07:00:00 4,6 3,3 0 0 N 1027,1 10
14.02.2019 06:00:00 4,6 3,3 4 2 - 1027,0 10
14.02.2019 05:00:00 4,4 3,1 2 1 - 1026,7 10
14.02.2019 04:00:00 5,4 4,0 8 4 NW 1027,0 10
14.02.2019 03:00:00 5,5 4,1 0 0 N 1027,1 10
14.02.2019 02:00:00 6,1 4,3 0 0 N 1027,1 10
14.02.2019 01:00:00 6,8 4,9 2 1 - 1027,3 10
14.02.2019 00:00:00 7,9 5,7 2 1 - 1027,5 10
13.02.2019 23:00:00 7,3 4,7 0 0 N 1027,5 10
13.02.2019 22:00:00 9,4 6,5 4 2 ONO 1027,3 10
13.02.2019 21:00:00 11,0 6,9 5 3 ONO 1027,3 10
13.02.2019 20:00:00 12,4 6,9 4 2 - 1027,2 10
13.02.2019 19:00:00 15,0 7,8 13 7 ZO 1026,8 10
13.02.2019 18:00:00 17,4 8,3 18 10 ZO 1026,4 10
13.02.2019 17:00:00 18,7 9,5 18 10 ZZO 1026,6 10
13.02.2019 16:00:00 19,3 9,2 18 10 ZZO 1026,7 10
13.02.2019 15:00:00 19,6 9,0 9 5 ZZO 1026,9 10
13.02.2019 14:00:00 19,6 8,7 5 3 - 1027,4 10
13.02.2019 13:00:00 18,9 8,5 5 3 - 1028,3 10
13.02.2019 12:00:00 17,4 8,1 5 3 ZW 1028,7 10
13.02.2019 11:00:00 16,0 8,7 5 3 Z 1028,8 10
13.02.2019 10:00:00 11,3 7,5 0 0 N 1028,6 10
13.02.2019 09:00:00 6,4 4,6 4 2 - 1028,3 10
13.02.2019 08:00:00 6,5 4,5 4 2 NW 1027,7 10
13.02.2019 07:00:00 7,9 5,2 11 6 NO 1027,4 10
13.02.2019 06:00:00 7,8 4,6 8 4 N 1027,4 10
13.02.2019 05:00:00 9,6 5,1 9 5 O 1027,5 10
13.02.2019 04:00:00 9,2 4,5 5 3 ONO 1027,7 10
13.02.2019 03:00:00 11,7 4,8 8 4 O 1028,0 10
13.02.2019 02:00:00 11,6 4,1 2 1 - 1028,2 10
13.02.2019 01:00:00 12,0 4,2 11 6 O 1028,5 10
13.02.2019 00:00:00 11,6 4,1 9 5 O 1028,6 10
12.02.2019 23:00:00 12,6 4,7 11 6 O 1028,9 10
12.02.2019 22:00:00 12,7 5,8 13 7 O 1028,8 10
12.02.2019 21:00:00 13,3 6,9 11 6 O 1028,7 10
12.02.2019 20:00:00 14,8 7,8 16 9 OZO 1028,5 10

tt = temperatuur
td = dauwpunt
ff = windsnelheid
dd = windrichting
ppp = luchtdruk
vv = zicht

Weerstations in de omgeving